Regional Weather Roundup
Issued by NWS

Home | Current Version | Previous Version | Graphics & Text | Print | Product List | Glossary On
Versions: 1 2 3 4 5 6 7 8 9 10 11 12 13 14 15 16 17 18 19 20 21 22 23 24 25 26 27 28 29 30 31 32 33 34 35 36 37 38 39 40 41 42 43 44 45 46 47 48 49 50
000
ASUS43 KMKX 170521
RWRWI

WISCONSIN REGIONAL WEATHER ROUNDUP
NATIONAL WEATHER SERVICE MILWAUKEE/SULLIVAN WI
1200 AM CDT TUE OCT 17 2017

NOTE: "FAIR" INDICATES FEW OR NO CLOUDS BELOW 12,000 FEET WITH NO
SIGNIFICANT WEATHER AND/OR OBSTRUCTIONS TO VISIBILITY.

WIZ001-002-006>008-014>016-023>028-170600-
NORTHWEST WISCONSIN

CITY           SKY/WX    TMP DP  RH WIND       PRES   REMARKS
SUPERIOR ARPT  CLOUDY    50  37  61 W7        29.88S
ASHLAND        PTCLDY    55  36  48 SW10G20   29.89F
HAYWARD        CLOUDY    55  35  47 SW10      29.93F
SIREN          CLOUDY    57  36  45 SW12      29.93S
CUMBERLAND     CLOUDY    45  34  65 SW3       29.95F
RICE LAKE      CLOUDY    45  37  72 CALM      29.97F
CHETEK         CLOUDY    46  38  76 SE6       29.96F
LADYSMITH      CLEAR     46  37  68 S7        29.98F
EAU CLAIRE     CLEAR     44  37  76 S3        29.98F
MENOMONIE      CLEAR     52  37  56 S6        29.98F
NEW RICHMOND   CLEAR     51  37  57 SW7       29.96S
OSCEOLA        CLEAR     51  38  60 SW3       29.98R
$$

WIZ003>005-009-010-017-018-170600-
NORTH CENTRAL WISCONSIN

CITY           SKY/WX    TMP DP  RH WIND       PRES   REMARKS
MANITOWISH WTR CLEAR     42  35  78 S3        29.94F
ARBOR VITAE    CLEAR     45  36  70 S7        29.96F
WOODRUFF       CLEAR     45  36  70 S7        29.96F
RHINELANDER    CLEAR     48  36  63 SW12      29.99F
EAGLE RIVER    CLEAR     46  33  60 SW6       29.96F
LAND O LAKES   CLEAR     43  34  70 S3        29.97F
PHILLIPS       CLOUDY    45  35  68 S7        29.96F
TOMAHAWK       CLEAR     43  34  70 CALM      30.00F
MEDFORD        CLEAR     48  35  60 S8        30.00F
MERRILL        CLEAR     48  35  61 SW6       30.01F
$$

WIZ029-030-035-036-043>047-170600-
CENTRAL WISCONSIN

CITY           SKY/WX    TMP DP  RH WIND       PRES   REMARKS
WAUSAU         CLEAR     47  37  68 SW7       30.02F
MOSINEE        CLEAR     46  36  66 S10       30.04F
MARSHFIELD     CLEAR     43  34  70 S6        30.03F
STEVENS POINT  CLEAR     45  34  66 S9        30.05F
WAUPACA        CLEAR     46  38  73 S6        30.07F
WAUTOMA        PTCLDY    39  37  92 CALM      30.09F
WISC RAPIDS    CLEAR     47  36  65 S7        30.06F
CAMP DOUGLAS   NOT AVBL
$$

WIZ011>013-019>022-031-037>040-048>050-170600-
NORTHEAST WISCONSIN

CITY           SKY/WX    TMP DP  RH WIND       PRES   REMARKS
ANTIGO         CLEAR     45  35  69 SW10      30.03F
SHAWANO        CLEAR     47  38  70 SW3       30.05F
OCONTO         CLEAR     47  37  70 SW5       30.04F
STURGEON BAY   CLEAR     48  38  68 S10       30.06F
GREEN BAY      CLEAR     47  43  86 MISG      30.07F
MANITOWOC      CLEAR     45  37  73 S5        30.10F
APPLETON       CLEAR     50  34  53 SW13      30.07S
CLINTONVILLE   CLEAR     46  37  71 SW6       30.06F
OSHKOSH        CLEAR     48  39  71 S12       30.09F
$$

WIZ032>034-041-042-053>061-170600-
SOUTHWEST WISCONSIN

CITY           SKY/WX    TMP DP  RH WIND       PRES   REMARKS
LA CROSSE      CLOUDY    55  40  56 S13       30.03F
SPARTA         CLOUDY    52  37  57 S3        30.06F
VIROQUA        CLOUDY    51  39  62 CALM      30.07F
BOSCOBEL       CLEAR     42  39  89 CALM      30.11F
PRAIRIE DU CHI CLEAR     55  36  47 S6        30.10F
PLATTEVILLE    CLOUDY    48  39  71 S9        30.14F
$$

WIZ056-057-062-063-064-067-068-170600-
SOUTH CENTRAL WISCONSIN

CITY           SKY/WX    TMP DP  RH WIND       PRES   REMARKS
REEDSBURG      CLOUDY    50  36  59 S7        30.09F
BARABOO/DELLS  CLOUDY    50  35  56 S9        30.09F
LONE ROCK      CLEAR     49  38  65 CALM      30.11F
MINERAL POINT  CLEAR     50  37  62 S7        30.13F
MADISON        CLEAR     52  37  56 S6        30.13F
MIDDLETON      CLEAR     52  36  53 SW8       30.13F
WATERTOWN      CLEAR     46  39  79 S3        30.14F
MONROE         CLEAR     48  36  61 SW14      30.15F
JANESVILLE     CLEAR     46  36  66 S5        30.16F
$$

WIZ051-052-058>065-066-070>072-170600-
SOUTHEAST WISCONSIN

CITY           SKY/WX    TMP DP  RH WIND       PRES   REMARKS
MILWAUKEE      CLEAR     49  38  65 SW7       30.16F
WAUKESHA       CLEAR     45  36  70 SW5       30.17S
MILWAUKEE/TIMM CLEAR     46  34  61 SW8       30.16F
RACINE         CLEAR     49  38  65 SW7       30.18F
BURLINGTON     CLEAR     40  39  95 CALM      30.17F
KENOSHA        CLEAR     46  37  71 SW6       30.18F
FOND DU LAC    CLEAR     50  36  58 SW8       30.11F
SHEBOYGAN      CLEAR     43  38  82 S5        30.12F
WEST BEND      CLEAR     45  37  76 SW3       30.14F
JUNEAU         CLEAR     46  37  71 S5        30.14F
$$

LSZ147-162-170600-
LAKE SUPERIOR

STATION/POSITION TIME  TEMP    WIND        PRES    WAVE
                       AIR SEA DIR/SP/G            HT/PER
                 (UTC) (F)     (DEG/KT/KT) (MB)    (FT/S)
W MID LAKE BUOY  0450   55 53              1010.0F   3/ 5
DEVILS ISLAND    0500   58     240/ 18/ 21 1010.6F
PORT WING        0420          200/ 16/ 25 1011.5
SAXON HARBOR     0440   58     190/  9/ 16 1011.2F
$$

LMZ867-665-643>646-170600-
LAKE MICHIGAN

STATION/POSITION TIME  TEMP    WIND        PRES    WAVE
                       AIR SEA DIR/SP/G            HT/PER
                 (UTC) (F)     (DEG/KT/KT) (MB)    (FT/S)
S GREEN BAY BUOY 0500   56 58  200/ 19/ 23 1017.2
N MID LAKE BUOY  0450   59 60  220/ 23/ 27 1017.3F   5/ 6
NORTHPORT PIER   0440   51     200/  4/  8 1016.9F
KEWAUNEE LAKESHO 0500   49     220/  9/ 12 1017.7
SHEBOYGAN LAKESH 0500   51     200/ 11/ 12 1019.9F
PORT WASHINGTON  0440   49     240/  4/  7 1021.3F
MILWAUKEE LAKESH 0300   54     210/  5/  6   N/A
S MID LAKE BUOY  0450   60 62  260/ 16/ 19 1022.0F   2/ 4
KENOSHA   LAKESH 0500   51     210/  7/ 10 1021.7
$$

TC  - TEMPERATURE IN CELSIUS
VSB - VISIBILITY IN STATUTE MILES
WCI - WIND CHILL INDEX
HX  - HEAT INDEX





USA.gov is the U.S. government's official web portal to all federal, state and local government web resources and services.